Stations météo

réclame
Mon MeteoGroup
Bari Palese, Italie (16270): Température de l'air & dewpoint: 11.12.2018 20:00:00 - 17.12.2018 20:00:00 (CET)Bari Palese, Italie (16270): Vitesse du vent: 11.12.2018 20:00:00 - 17.12.2018 20:00:00 (CET)Bari Palese, Italie (16270): Direction du vent: 11.12.2018 20:00:00 - 17.12.2018 20:00:00 (CET)Bari Palese, Italie (16270): reduced air pressure: 11.12.2018 20:00:00 - 17.12.2018 20:00:00 (CET)Bari Palese, Italie (16270): visibility: 11.12.2018 20:00:00 - 17.12.2018 20:00:00 (CET)Bari Palese, Italie (16270): Quantités de précipitations: 11.12.2018 20:00:00 - 17.12.2018 20:00:00 (CET)
Date & Time tt [°C] td [°C] ff [km/h] ff [knt] dd ppp [hPa] vv [km] rr [mm]
17.12.2018 20:00:00 - - - - - - - -
17.12.2018 19:00:00 7,7 5,9 21 11 WNW 1012,3 15 -
17.12.2018 18:00:00 - - - - - - - -
17.12.2018 17:00:00 - - - - - - - -
17.12.2018 16:00:00 6,5 5,1 22 12 WNW 1011,3 15 -
17.12.2018 15:00:00 - - - - - - - -
17.12.2018 14:00:00 - - - - - - - -
17.12.2018 13:00:00 9,6 7,4 22 12 NNW 1010,3 15 -
17.12.2018 12:00:00 - - - - - - - -
17.12.2018 11:00:00 - - - - - - - -
17.12.2018 10:00:00 11,2 7,0 13 7 S 1012,0 15 -
17.12.2018 09:00:00 - - - - - - - -
17.12.2018 08:00:00 - - - - - - - -
17.12.2018 07:00:00 7,7 3,2 11 6 SSE 1013,2 17 0,0
17.12.2018 06:00:00 - - - - - - - -
17.12.2018 05:00:00 - - - - - - - -
17.12.2018 04:00:00 6,8 1,8 9 5 S 1015,0 17 -
17.12.2018 03:00:00 - - - - - - - -
17.12.2018 02:00:00 - - - - - - - -
17.12.2018 01:00:00 5,5 1,9 8 4 SSW 1017,5 13 0,0
17.12.2018 00:00:00 - - - - - - - -
16.12.2018 23:00:00 - - - - - - - -
16.12.2018 22:00:00 3,7 1,4 11 6 SSW 1018,7 15 -
16.12.2018 21:00:00 - - - - - - - -
16.12.2018 20:00:00 - - - - - - - -
16.12.2018 19:00:00 3,1 1,2 11 6 SW 1020,0 15 0,0
16.12.2018 18:00:00 - - - - - - - -
16.12.2018 17:00:00 - - - - - - - -
16.12.2018 16:00:00 7,7 2,0 9 5 NW 1019,4 15 -
16.12.2018 15:00:00 - - - - - - - -
16.12.2018 14:00:00 - - - - - - - -
16.12.2018 13:00:00 9,3 0,9 21 11 NNW 1019,1 14 0,0
16.12.2018 12:00:00 - - - - - - - -
16.12.2018 11:00:00 - - - - - - - -
16.12.2018 10:00:00 5,5 0,2 21 11 W 1020,0 14 -
16.12.2018 09:00:00 - - - - - - - -
16.12.2018 08:00:00 - - - - - - - -
16.12.2018 07:00:00 4,4 -0,2 24 13 W 1018,9 14 -
16.12.2018 06:00:00 - - - - - - - -
16.12.2018 05:00:00 - - - - - - - -
16.12.2018 04:00:00 4,5 -0,2 22 12 WNW 1018,1 14 -
16.12.2018 03:00:00 - - - - - - - -
16.12.2018 02:00:00 - - - - - - - -
16.12.2018 01:00:00 4,5 0,5 24 13 WNW 1017,2 14 -
16.12.2018 00:00:00 - - - - - - - -
15.12.2018 23:00:00 - - - - - - - -
15.12.2018 22:00:00 4,4 1,9 22 12 WNW 1016,8 8 -
15.12.2018 21:00:00 - - - - - - - -
15.12.2018 20:00:00 - - - - - - - -
15.12.2018 19:00:00 5,7 4,3 16 9 WNW 1015,7 6 -
15.12.2018 18:00:00 - - - - - - - -
15.12.2018 17:00:00 - - - - - - - -
15.12.2018 16:00:00 5,5 4,0 22 12 WNW 1014,3 6 -
15.12.2018 15:00:00 - - - - - - - -
15.12.2018 14:00:00 - - - - - - - -
15.12.2018 13:00:00 6,1 4,6 24 13 WNW 1013,4 6 -
15.12.2018 12:00:00 - - - - - - - -
15.12.2018 11:00:00 - - - - - - - -
15.12.2018 10:00:00 6,3 5,2 21 11 WNW 1014,0 6 -
15.12.2018 09:00:00 - - - - - - - -
15.12.2018 08:00:00 - - - - - - - -
15.12.2018 07:00:00 6,6 5,5 21 11 WNW 1012,0 8 0,0
15.12.2018 06:00:00 - - - - - - - -
15.12.2018 05:00:00 - - - - - - - -
15.12.2018 04:00:00 6,9 6,0 16 9 WNW 1011,1 8 -
15.12.2018 03:00:00 - - - - - - - -
15.12.2018 02:00:00 - - - - - - - -
15.12.2018 01:00:00 8,4 6,1 9 5 WNW 1011,9 8 0,0
15.12.2018 00:00:00 - - - - - - - -
14.12.2018 23:00:00 - - - - - - - -
14.12.2018 22:00:00 8,8 6,5 8 4 W 1012,3 8 -
14.12.2018 21:00:00 - - - - - - - -
14.12.2018 20:00:00 - - - - - - - -
14.12.2018 19:00:00 8,8 6,9 11 6 NW 1011,2 4,5 -
14.12.2018 18:00:00 - - - - - - - -
14.12.2018 17:00:00 - - - - - - - -
14.12.2018 16:00:00 9,6 7,9 13 7 NW 1010,6 4,5 -
14.12.2018 15:00:00 - - - - - - - -
14.12.2018 14:00:00 - - - - - - - -
14.12.2018 13:00:00 10,5 9,5 9 5 NNW 1009,5 4,5 -
14.12.2018 12:00:00 - - - - - - - -
14.12.2018 11:00:00 - - - - - - - -
14.12.2018 10:00:00 11,0 9,9 8 4 NNW 1010,2 4,5 -
14.12.2018 09:00:00 - - - - - - - -
14.12.2018 08:00:00 - - - - - - - -
14.12.2018 07:00:00 9,8 8,9 2 1 S 1009,8 8 -
14.12.2018 06:00:00 - - - - - - - -
14.12.2018 05:00:00 - - - - - - - -
14.12.2018 04:00:00 9,1 8,2 4 2 SE 1010,0 8 -
14.12.2018 03:00:00 - - - - - - - -
14.12.2018 02:00:00 - - - - - - - -
14.12.2018 01:00:00 9,4 7,3 8 4 SSW 1011,1 8 0,0
14.12.2018 00:00:00 - - - - - - - -
13.12.2018 23:00:00 - - - - - - - -
13.12.2018 22:00:00 9,2 6,9 5 3 WSW 1011,1 8 -
13.12.2018 21:00:00 - - - - - - - -
13.12.2018 20:00:00 - - - - - - - -
13.12.2018 19:00:00 9,9 7,6 9 5 SSW 1011,0 8 -
13.12.2018 18:00:00 - - - - - - - -
13.12.2018 17:00:00 - - - - - - - -
13.12.2018 16:00:00 10,6 8,1 5 3 SE 1011,4 8 -
13.12.2018 15:00:00 - - - - - - - -
13.12.2018 14:00:00 - - - - - - - -
13.12.2018 13:00:00 10,5 7,3 9 5 S 1012,0 8 -
13.12.2018 12:00:00 - - - - - - - -
13.12.2018 11:00:00 - - - - - - - -
13.12.2018 10:00:00 8,0 6,2 4 2 S 1014,7 8 -
13.12.2018 09:00:00 - - - - - - - -
13.12.2018 08:00:00 - - - - - - - -
13.12.2018 07:00:00 5,5 2,4 5 3 SSW 1015,3 11 0,0
13.12.2018 06:00:00 - - - - - - - -
13.12.2018 05:00:00 - - - - - - - -
13.12.2018 04:00:00 5,4 1,7 8 4 SSW 1016,6 10 -
13.12.2018 03:00:00 - - - - - - - -
13.12.2018 02:00:00 - - - - - - - -
13.12.2018 01:00:00 3,9 1,6 9 5 SSW 1018,0 10 0,0
13.12.2018 00:00:00 - - - - - - - -
12.12.2018 23:00:00 - - - - - - - -
12.12.2018 22:00:00 2,9 0,9 9 5 SW 1019,1 10 -
12.12.2018 21:00:00 - - - - - - - -
12.12.2018 20:00:00 - - - - - - - -
12.12.2018 19:00:00 5,0 2,1 9 5 SSW 1019,7 10 0,0
12.12.2018 18:00:00 - - - - - - - -
12.12.2018 17:00:00 - - - - - - - -
12.12.2018 16:00:00 7,6 1,9 5 3 ESE 1019,2 16 -
12.12.2018 15:00:00 - - - - - - - -
12.12.2018 14:00:00 - - - - - - - -
12.12.2018 13:00:00 10,0 3,3 8 4 E 1019,5 16 0,0
12.12.2018 12:00:00 - - - - - - - -
12.12.2018 11:00:00 - - - - - - - -
12.12.2018 10:00:00 8,8 3,8 4 2 NW 1021,1 16 -
12.12.2018 09:00:00 - - - - - - - -
12.12.2018 08:00:00 - - - - - - - -
12.12.2018 07:00:00 2,5 0,4 11 6 W 1020,1 16 -
12.12.2018 06:00:00 - - - - - - - -
12.12.2018 05:00:00 - - - - - - - -
12.12.2018 04:00:00 2,6 0,7 5 3 WSW 1019,7 18 -
12.12.2018 03:00:00 - - - - - - - -
12.12.2018 02:00:00 - - - - - - - -
12.12.2018 01:00:00 4,6 2,2 5 3 WSW 1019,5 21 -
12.12.2018 00:00:00 - - - - - - - -
11.12.2018 23:00:00 - - - - - - - -
11.12.2018 22:00:00 3,7 1,5 13 7 WSW 1019,4 21 -
11.12.2018 21:00:00 - - - - - - - -
11.12.2018 20:00:00 - - - - - - - -

tt = Température de l'air
td = dewpoint
ff = Vitesse du vent
dd = Direction du vent
ppp = reduced air pressure
vv = visibility
rr = Quantités de précipitations

stations d'obs. à proximité